Weather History for Plattsburgh, NY

Change the Weather History Date:

Tuesday, November 1, 2011

  Actual Average Record
Temperature  
Mean Temperature 42 °F 42 °F  
Max Temperature 53 °F 52 °F 72 °F (1974)
Min Temperature 30 °F 32 °F 20 °F (1988)
Degree Days  
Heating Degree Days 23 23  
Month to date heating degree days 23 23  
Since 1 July heating degree days 630 806  
Cooling Degree Days 0 0  
Month to date cooling degree days 0 0  
Year to date cooling degree days 444 346  
Moisture  
Dew Point 33 °F    
Average Humidity 73    
Maximum Humidity 96    
Minimum Humidity 50    
Precipitation  
Precipitation 0.00 in - 0.77 in (1988)
Month to date precipitation 0.00  
Year to date precipitation 36.03  
Sea Level Pressure  
Sea Level Pressure 30.32 in    
Wind  
Wind Speed 2 mph (SE)    
Max Wind Speed 13 mph    
Max Gust Speed 16 mph    
Visibility 10 miles    
Events      
T = Trace of Precipitation, MM = Missing Value Source: NWS Daily Summary

Daily Weather History Graph

Daily Weather History Graph

Search for Another Location

Airport:

Trip Planner

Search our weather history database for the weather conditions in past years. The results will help you decide how hot, cold, wet, or windy it might be!

Date:

Astronomy

Nov. 01, 2011 Rise Set
Actual Time 7:31 AM EDT 5:43 PM EDT
Civil Twilight 7:00 AM EDT 6:13 PM EDT
Nautical Twilight 6:26 AM EDT 6:47 PM EDT
Astronomical Twilight 5:52 AM EDT 7:21 PM EDT
Moon 1:19 PM EDT (11/1) 11:20 PM EDT (11/1)
Length of Visible Light 11h 12m
Length of Day
10h 11m
Waxing Crescent, 39% of the Moon is Illuminated
Nov 1
Waxing Crescent
Nov 2
First Quarter
Nov 10
Full
Nov 18
Last Quarter
Nov 25
New

Hourly Weather History & Observations

Time (EDT) Temp. Dew Point Humidity Pressure Visibility Wind Dir Wind Speed Gust Speed Precip Events Conditions
12:53 AM 41.0 °F 30.9 °F 67% 30.31 in 10.0 mi Calm Calm - N/A   Clear
1:53 AM 36.0 °F 30.9 °F 82% 30.32 in 10.0 mi Calm Calm - N/A   Clear
2:53 AM 35.1 °F 30.0 °F 82% 30.32 in 10.0 mi Calm Calm - N/A   Scattered Clouds
3:53 AM 34.0 °F 30.0 °F 85% 30.31 in 10.0 mi Calm Calm - N/A   Scattered Clouds
4:53 AM 35.1 °F 30.9 °F 85% 30.32 in 10.0 mi Calm Calm - N/A   Overcast
5:53 AM 34.0 °F 30.0 °F 85% 30.33 in 10.0 mi Calm Calm - N/A   Overcast
6:53 AM 30.9 °F 28.9 °F 92% 30.33 in 10.0 mi Calm Calm - N/A   Mostly Cloudy
7:53 AM 30.9 °F 28.9 °F 92% 30.34 in 10.0 mi Calm Calm - N/A   Overcast
10:53 AM 48.0 °F 33.1 °F 56% 30.35 in 10.0 mi Calm Calm - N/A   Clear
11:53 AM 50.0 °F 35.1 °F 57% 30.35 in 10.0 mi SE 4.6 mph - N/A   Scattered Clouds
12:53 PM 51.1 °F 34.0 °F 52% 30.32 in 10.0 mi ESE 5.8 mph - N/A   Clear
1:53 PM 51.1 °F 37.0 °F 59% 30.30 in 10.0 mi SE 8.1 mph - N/A   Clear
3:53 PM 53.1 °F 36.0 °F 52% 30.30 in 10.0 mi SSE 8.1 mph - N/A   Clear
4:53 PM 51.1 °F 36.0 °F 56% 30.30 in 10.0 mi SSE 8.1 mph - N/A   Clear
5:53 PM 48.0 °F 37.0 °F 66% 30.29 in 10.0 mi South 3.5 mph - N/A   Clear
7:53 PM 39.9 °F 36.0 °F 86% 30.31 in 10.0 mi Calm Calm - N/A   Clear
8:53 PM 37.0 °F 34.0 °F 89% 30.31 in 10.0 mi Calm Calm - N/A   Clear
9:53 PM 34.0 °F 32.0 °F 92% 30.32 in 10.0 mi Calm Calm - N/A   Clear
10:53 PM 34.0 °F 32.0 °F 92% 30.32 in 9.0 mi Calm Calm - N/A   Clear
11:53 PM 33.1 °F 30.9 °F 92% 30.31 in 9.0 mi Calm Calm - N/A   Clear